EW6370 Weather Reports


Display with metric or nautical units.
time (UTC)temp
F
wind
direction
speed
MPH
gust
MPH
rain 1hr
in
rain 24hr
in
rain mn
in
humidity
%
barometer
mb
20190124064655 31 335 0.0 1.0 0.00 0.00 0.00 83 1001.5
20190124063223 30 335 1.0 2.0 0.00 0.00 0.00 83 1001.4
20190124061629 30 336 0.0 3.0 0.00 0.00 0.00 84 1001.5
20190124060157 30 337 0.0 4.0 0.00 0.00 0.00 84 1001.5
20190124054631 30 324 1.0 3.0 0.00 0.00 0.00 85 1001.4
20190124053141 30 330 0.0 2.0 0.00 0.00 0.00 85 1001.4
20190124051609 29 330 0.0 0.0 0.00 0.00 0.00 85 1001.3
20190124050127 29 330 0.0 2.0 0.00 0.00 0.00 85 1001.3
20190124044700 29 330 0.0 3.0 0.00 0.00 0.00 85 1001.3
20190124043219 29 330 0.0 0.0 0.00 0.00 0.00 85 1001.4
20190124041622 29 330 0.0 0.0 0.00 0.00 0.00 85 1001.3
20190124040105 29 330 0.0 0.0 0.00 0.00 0.00 85 1001.2
20190124034633 29 330 0.0 0.0 0.00 0.00 0.00 85 1001.2
20190124033118 30 330 0.0 0.0 0.00 0.00 0.00 84 1001.1
20190124031546 30 330 0.0 2.0 0.00 0.00 0.00 84 1001.1
20190124030138 30 330 0.0 1.0 0.00 0.00 0.00 83 1001.1
20190124024619 30 330 0.0 0.0 0.00 0.00 0.00 83 1001.0
20190124023113 30 330 0.0 3.0 0.00 0.00 0.00 83 1000.9
20190124021544 30 330 0.0 0.0 0.00 0.00 0.00 83 1000.9
20190124020109 29 330 0.0 0.0 0.00 0.00 0.00 83 1000.8
20190124014549 29 330 0.0 0.0 0.00 0.00 0.00 83 1000.8
20190124013049 29 330 0.0 0.0 0.00 0.00 0.00 83 1000.8
20190124011613 29 330 0.0 0.0 0.00 0.00 0.00 83 1000.6
20190124010037 29 330 0.0 0.0 0.00 0.00 0.00 82 1000.5
20190124004607 30 330 0.0 0.0 0.00 0.00 0.00 82 1000.3
20190124003106 30 330 0.0 0.0 0.00 0.00 0.00 82 1000.2
20190124001535 29 330 0.0 0.0 0.00 0.00 0.00 82 1000.3
20190124000037 29 330 0.0 0.0 0.00 0.00 0.00 82 1000.1
20190123234527 29 330 0.0 2.0 0.00 0.00 0.00 82 1000.2
20190123233047 29 330 0.0 0.0 0.00 0.00 0.00 82 1000.2
20190123231518 29 339 0.0 2.0 0.00 0.00 0.00 82 1000.1
20190123230031 29 340 0.0 2.0 0.00 0.00 0.00 82 1000.1
20190123224524 29 340 0.0 2.0 0.00 0.00 0.00 82 1000.3
20190123223024 29 340 0.0 3.0 0.00 0.00 0.00 82 1000.2
20190123221513 29 6 0.0 5.0 0.00 0.00 0.00 82 1000.3
20190123220016 29 139 1.0 2.0 0.00 0.00 0.00 82 1000.4
20190123214610 29 139 0.0 0.0 0.00 0.00 0.00 82 1000.3
20190123213250 29 139 1.0 3.0 0.00 0.00 0.00 82 1000.2
20190123211649 29 139 1.0 4.0 0.00 0.00 0.00 82 1000.2
20190123210154 29 153 0.0 3.0 0.00 0.00 0.00 82 1000.3
20190123204625 29 136 0.0 2.0 0.00 0.00 0.00 83 1000.3
20190123203114 29 136 1.0 3.0 0.00 0.00 0.00 83 1000.3
20190123201652 29 141 1.0 3.0 0.00 0.00 0.00 83 1000.2
20190123200128 29 143 0.0 3.0 0.00 0.00 0.00 83 1000.1
20190123194659 29 137 0.0 2.0 0.00 0.00 0.00 83 999.9
20190123193116 29 137 0.0 2.0 0.00 0.00 0.00 83 999.8
20190123191554 29 137 0.0 2.0 0.00 0.00 0.00 82 999.6
20190123190136 29 137 0.0 2.0 0.00 0.00 0.00 82 999.7
20190123184617 29 136 0.0 3.0 0.00 0.00 0.00 82 999.6
20190123183055 29 122 0.0 2.0 0.00 0.00 0.00 81 999.6
20190123181611 29 143 1.0 3.0 0.00 0.00 0.00 82 999.7
20190123180114 29 142 0.0 2.0 0.00 0.00 0.00 81 999.7
20190123174605 29 142 1.0 4.0 0.00 0.00 0.00 81 999.7
20190123173108 29 145 0.0 3.0 0.00 0.00 0.00 80 999.6
20190123171553 29 139 0.0 2.0 0.00 0.00 0.00 79 999.3
20190123170202 30 137 0.0 5.0 0.00 0.00 0.00 79 999.4
20190123164605 30 146 2.0 4.0 0.00 0.00 0.00 79 999.3
20190123163102 30 149 2.0 6.0 0.00 0.00 0.00 79 999.4
20190123161555 30 141 1.0 4.0 0.00 0.00 0.00 79 999.4
20190123160053 30 139 0.0 5.0 0.00 0.00 0.00 79 999.2
20190123154558 30 136 0.0 2.0 0.00 0.00 0.00 79 999.1
20190123153050 30 136 0.0 4.0 0.00 0.00 0.00 79 999.2
20190123151559 30 134 0.0 4.0 0.00 0.00 0.00 79 999.1
20190123150034 30 150 0.0 3.0 0.00 0.00 0.00 79 999.0
20190123144606 30 137 1.0 4.0 0.00 0.00 0.00 79 999.1
20190123143024 30 139 0.0 4.0 0.00 0.00 0.00 79 999.0
20190123141555 30 141 0.0 4.0 0.00 0.00 0.00 79 998.8
20190123140040 30 139 0.0 4.0 0.00 0.00 0.00 79 998.9
20190123134533 30 143 0.0 5.0 0.00 0.00 0.00 79 998.8
20190123133039 30 334 0.0 3.0 0.00 0.00 0.00 79 998.7
20190123131544 30 143 1.0 4.0 0.00 0.00 0.00 79 998.8
20190123130119 29 330 0.0 1.0 0.00 0.00 0.00 79 998.9
20190123124522 29 328 0.0 3.0 0.00 0.00 0.00 79 999.2
20190123123027 30 343 1.0 4.0 0.00 0.00 0.00 79 999.2
20190123121525 30 134 0.0 4.0 0.00 0.00 0.00 79 999.2
20190123120021 30 330 0.0 2.0 0.00 0.00 0.00 79 999.3
20190123114531 30 141 0.0 2.0 0.00 0.00 0.00 78 999.4
20190123113018 30 115 0.0 0.0 0.00 0.00 0.00 78 999.5
20190123111509 30 121 0.0 2.0 0.00 0.00 0.00 78 999.4
20190123110012 29 121 0.0 1.0 0.00 0.00 0.00 78 999.7
20190123104508 29 121 0.0 1.0 0.00 0.00 0.00 78 999.8
20190123103003 29 121 0.0 2.0 0.00 0.00 0.00 79 1000.1
20190123101813 29 121 0.0 1.0 0.00 0.00 0.00 79 1000.2
20190123100201 29 121 0.0 1.0 0.00 0.00 0.00 79 1000.6
20190123094704 29 121 1.0 3.0 0.00 0.00 0.00 79 1000.7
20190123093240 29 122 0.0 3.0 0.00 0.00 0.00 79 1000.9
20190123091636 29 134 0.0 2.0 0.00 0.00 0.00 80 1000.9
20190123090205 29 151 0.0 3.0 0.00 0.00 0.00 80 1001.1
20190123084809 29 130 1.0 3.0 0.00 0.01 0.00 82 1000.9
20190123083106 28 312 0.0 1.0 0.00 0.01 0.00 83 1000.8
20190123081651 28 277 0.0 0.0 0.00 0.01 0.00 83 1000.7
20190123080149 28 277 0.0 0.0 0.00 0.01 0.00 83 1000.7
20190123074642 28 152 0.0 2.0 0.00 0.01 0.00 84 1001.0
20190123073153 28 328 0.0 2.0 0.00 0.01 0.00 84 1000.9
20190123071640 28 329 0.0 1.0 0.00 0.01 0.00 84 1001.0
20190123070110 28 328 0.0 1.0 0.00 0.01 0.00 84 1001.1